Volver al catálogo

FENGYUN 1C DEB

ActivoPO
NORAD 31374·DEBRIS·🇨🇳 China

Lanzado May 10, 1999 desde Taiyuan Satellite Launch Center

Loading…

Próximos Pases (próximas 24 horas)

TLE

ActualizadoSource: Space-Track

Época: Sep 11, 2026, 06:40 UTC

1 31374U 99025BSE 26254.27837638  .00003927  00000-0  11927-2 0  9999
2 31374  99.6410  62.6541 0135718 281.3772  77.2191 14.37649811999646

Sigue FENGYUN 1C DEB en tiempo real con AllMySat

Download on the App Store